Weather Roundup
Issued by NWS

Home | Current Version | Previous Version | Graphics & Text | Print | Product List | Glossary Off
Versions: 1 2 3 4 5 6 7 8 9 10 11 12 13 14 15 16 17 18 19 20 21 22 23 24 25 26 27 28 29 30 31 32 33 34 35 36 37 38 39 40 41 42 43 44 45 46 47 48 49 50

000
NZUS93 KARX 280459
HRRWXR

CURRENT HOURLY OBSERVATIONS ACROSS
MUCH OF THE UPPER MISSISSIPPI VALLEY
NATIONAL WEATHER SERVICE LA CROSSE WI
1200 AM CDT THU AUG 28 2014


...SOUTHEAST MINNESOTA...


CITY           SKY/WX    TMP DP  RH WIND       PRES   REMARKS
ROCHESTER      CLEAR     60  57  89 S3        30.16F
ROCHESTER/MAYO FAIR      64  58  82 CALM      30.16F
WINONA         CLEAR     61  59  94 CALM      30.15S
AUSTIN         PTCLDY    59  57  94 CALM      30.15F
ALBERT LEA     PTCLDY    63  57  82 SE5       30.15S
DODGE CENTER   CLEAR     61  57  88 S3        30.16S
PRESTON        CLEAR     62  61  99 CALM      30.17S
OWATONNA       PTCLDY    61  57  88 CALM      30.15S
FARIBAULT      PTCLDY    61  54  77 CALM      30.15S
$$

...ELSEWHERE IN MINNESOTA...


CITY           SKY/WX    TMP DP  RH WIND       PRES   REMARKS
MINNEAPOLIS    PTCLDY    66  58  75 E8        30.14S
INTNL FALLS    CLEAR     46  45  96 CALM      30.12R
DULUTH         PTCLDY    59  53  80 W5        30.14S
RED WING       CLEAR     63  59  88 NE3       30.14S
REDWOOD FALLS  MOCLDY    63  58  83 SE7       30.11F
MANKATO        PTCLDY    63  55  77 SE8       30.13S
WORTHINGTON    CLOUDY    64  63  94 E6        30.12F
FAIRMONT       MOCLDY    61  57  88 SE5       30.12F
$$

...SOUTHWEST WISCONSIN...


CITY           SKY/WX    TMP DP  RH WIND       PRES   REMARKS
LA CROSSE      CLEAR     64  60  87 SE3       30.14S
PRAIRIE DU CHI PTCLDY    62  59  91 CALM      30.14S
BOSCOBEL       PTCLDY    60  58  92 CALM      30.15S FOG
LONE ROCK      NOT AVBL
PLATTEVILLE    PTCLDY    65  61  86 NE6       30.15F
FORT MC COY    CLEAR     56  55  95 CALM      30.16S
CAMP DOUGLAS   FOG       55  55 100 NW3       30.15S VSB 3/4
VIROQUA        FAIR      59  59 100 CALM      30.16S
WIS DELLS      CLEAR     60  58  94 CALM      30.15S
$$

...ELSEWHERE IN WISCONSIN...


CITY           SKY/WX    TMP DP  RH WIND       PRES   REMARKS
MILWAUKEE      PTCLDY    64  56  75 E3        30.16R
MADISON        CLEAR     65  61  87 SE5       30.15R
GREEN BAY      PTCLDY    57  55  93 CALM      30.15S
EAU CLAIRE     CLEAR     58  56  93 CALM      30.15S
BLACK RVR FLS  FAIR      55  55 100 CALM      30.15S
MEDFORD        CLEAR     52  50  92 NE6       30.18S
WAUSAU         CLEAR     58  52  80 N3        30.16R
WIS RAPIDS     CLEAR     57  55  93 CALM      30.17R
MARSHFIELD     CLEAR     59  52  77 N3        30.16S
RICE LAKE      FOG       55  54  95 CALM      30.18S VSB 1
$$

...NORTHEAST IOWA...


CITY           SKY/WX    TMP DP  RH WIND       PRES   REMARKS
WATERLOO       PTCLDY    63  61  93 NE3       30.12F
DUBUQUE        MOCLDY    65  61  87 NE5       30.15R
DECORAH        PTCLDY    61  59  94 CALM      30.15S
MASON CITY     CLOUDY    62  61  96 E5        30.15F
CHARLES CITY   PTCLDY    63  61  94 NE3       30.15F
OELWEIN        PTCLDY    61  61 100 NE5       30.15S
$$

...ELSEWHERE IN IOWA...


CITY           SKY/WX    TMP DP  RH WIND       PRES   REMARKS
DES MOINES     CLOUDY    72  67  84 E6        30.07F
IOWA CITY      PTCLDY    69  64  84 NE5       30.12R
FORT DODGE     CLOUDY    66  64  94 E5        30.12S
MARSHALLTOWN   CLOUDY    66  64  93 E5        30.11S
CEDAR RAPIDS   PTCLDY    67  62  84 E3        30.11S
$$

...NORTHERN ILLINOIS...


CITY           SKY/WX    TMP DP  RH WIND       PRES   REMARKS
CHICAGO-OHARE  PTCLDY    68  59  73 NE7       30.13S
DUPAGE         CLEAR     63  60  90 N5        30.13S
CHICAGO-MIDWAY PTCLDY    70  62  76 NE7       30.12S
MOLINE         CLEAR     64  61  90 SE3       30.11S
ROCKFORD       MOCLDY    66  62  87 E7        30.16R
STERLING       PTCLDY    64  61  88 E5        30.13S
PEORIA         MOCLDY    75  66  73 NE3       30.09F
$$

NOTE: "FAIR" INDICATES FEW OR NO CLOUDS BELOW 12,000 FEET WITH NO
SIGNIFICANT WEATHER AND/OR OBSTRUCTIONS TO VISIBILITY. WIND
SPEEDS ARE IN MILES-PER-HOUR.



USA.gov is the U.S. government's official web portal to all federal, state and local government web resources and services.